Back to catalog

DELTA 1 DEB

AliveSSO
NORAD 21438·DEBRIS·🇺🇸 United States

Launched Jun 12, 1975 from Vandenberg Space Force Base

Loading…

Next Passes (next 24 hours)

TLE

FreshSource: Space-Track

Epoch: Sep 14, 2026, 06:09 UTC

1 21438U 75052DW  26257.25655301  .00000047  00000-0  18183-3 0  9991
2 21438  99.7184 167.1223 0081645  64.0826  87.1570 13.31070899716092

Track DELTA 1 DEB in real time with AllMySat

Download on the App Store